This is the latest recevied weather packets stored in our database for station/object KY4EF. If no packets are shown the sender has not sent any weather packets the latest 10 day(s).
| Time | Temp. | Humidity | Pressure | Rain* | Wind** | Luminosity | Snow |
|---|---|---|---|---|---|---|---|
| 1777841385 | 20° C | 37% | 1015.9 hPa | 0 mm | - | 471 W/m² | - |
| 1777841083 | 19.44° C | 37% | 1015.8 hPa | 0 mm | - | 484 W/m² | - |
| 1777840779 | 19.44° C | 38% | 1015.8 hPa | 0 mm | - | 497 W/m² | - |
| 1777840477 | 20° C | 38% | 1015.9 hPa | 0 mm | - | 511 W/m² | - |
| 1777840174 | 20° C | 38% | 1015.9 hPa | 0 mm | - | 521 W/m² | - |
| 1777839872 | 20° C | 38% | 1015.8 hPa | 0 mm | - | 534 W/m² | - |
| 1777839570 | 19.44° C | 37% | 1015.9 hPa | 0 mm | - | 545 W/m² | - |
| 1777839267 | 20° C | 37% | 1016 hPa | 0 mm | - | 557 W/m² | - |
| 1777838965 | 20° C | 37% | 1016 hPa | 0 mm | - | 568 W/m² | - |
| 1777838660 | 20° C | 37% | 1016.3 hPa | 0 mm | - | 578 W/m² | - |
| 1777838357 | 21.67° C | 36% | 1016.1 hPa | 0 mm | - | 590 W/m² | - |
| 1777838055 | 20° C | 38% | 1016.3 hPa | 0 mm | - | 599 W/m² | - |
| 1777837751 | 20° C | 40% | 1016.2 hPa | 0 mm | - | 610 W/m² | - |
| 1777837448 | 20° C | 37% | 1016.2 hPa | 0 mm | - | 618 W/m² | - |
| 1777837144 | 20.56° C | 37% | 1016.3 hPa | 0 mm | - | 628 W/m² | - |
| 1777836839 | 20.56° C | 38% | 1016.4 hPa | 0 mm | - | 638 W/m² | - |
| 1777836535 | 20.56° C | 38% | 1016.6 hPa | 0 mm | - | 646 W/m² | - |
| 1777836231 | 21.67° C | 38% | 1016.4 hPa | 0 mm | - | 654 W/m² | - |
| 1777835928 | 21.11° C | 37% | 1016.3 hPa | 0 mm | - | 663 W/m² | - |
| 1777835625 | 21.11° C | 39% | 1016.6 hPa | 0 mm | - | 671 W/m² | - |
| 1777835321 | 21.11° C | 38% | 1016.7 hPa | 0 mm | - | 677 W/m² | - |
| 1777835018 | 20.56° C | 36% | 1016.6 hPa | 0 mm | - | 684 W/m² | - |
| 1777834716 | 21.11° C | 38% | 1016.7 hPa | 0 mm | - | 688 W/m² | - |
| 1777834411 | 20.56° C | 38% | 1016.7 hPa | 0 mm | - | 695 W/m² | - |
| 1777834111 | 21.11° C | 35% | 1016.8 hPa | 0 mm | - | 700 W/m² | - |
* Rain latest hour (hover to see other rain measurements)
** Current wind speed in m/s (hover to see current wind gust speed)